Weather in Velikie Luky

Russia / Pskov Oblast     56°20′32″N   30°31′19″E
В апреле 2022 года жителям России запретили посещать сайт meteo.paraplan.net по решению Генеральной прокуратуры. Аудитория сайта уменьшилась в 10 раз. Владельцы сайта не видят смысла в поддержке погодного сервера в таких условиях. Сайт будет закрыт в октябре.
temp.,
°C
wind,
m/s
gust,
m/s
humid.,
%
clouds,
%
prec.,
mm/h
press.,
hPa
HPBL,
m
29 september, thu
thu2900:00+7ese1285100 0.1 100438
03:00+6sse2588100 0.1 1004210
06:00+5ese239291 0.0 100363
09:00+6se269099 0.1 1004321
12:00+9s3581100 0.0 1005649
15:00+11s3775100 0.0 1005960
18:00+10s41093100 0.8 1005542
21:00+9s41096100 1.8 1007473
30 september, fri
fri3000:00+8s3898100 0.0 1008301
03:00+7ssw269871 0.0 1009157
06:00+6wsw239728 0.0 101070
09:00+8sw25905 0.0 1011186
12:00+12wsw357155 0.0 1012702
15:00+14wsw465999 0.0 10131395
18:00+11w227224 0.0 101457
21:00+7ssw118617 0.0 101610
1 october, sat
sat100:00+6wnw1189100 0.0 101710
03:00+6e1191100 0.0 101710
06:00+5e1292100 0.0 101711
09:00+8e2384100 0.0 1016124
12:00+12ene3469100 0.0 1015606
15:00+11e3573100 0.1 1013794
18:00+8ene3892100 1.0 1012432
21:00+7nne3795100 2.5 1011345
2 october, sun
sun200:00+8nnw3893100 0.9 1010404
03:00+7nnw2794100 1.1 1010308
06:00+6nnw369498 0.0 1010199
09:00+6nnw3491100 0.0 1011179
12:00+8nne2386100 0.0 1011308
15:00+8ene1289100 0.0 1011162
18:00+7se1193100 0.4 101139
21:00+7n0193100 1.1 101118
3 october, mon
mon300:00+7ne1193100 0.3 101117
03:00+7ne2391100 0.6 101073
06:00+7ne2494100 0.1 1010165
09:00+8nne3797100 0.6 1006313
12:00+8nne51196100 1.7 1004546
15:00+8n81595100 7.6 1002835
18:00+7n81594100 5.4 1000884
21:00+6n81695100 12.6 997735